Flag for Denmark Weather past 2 weeks in Vejle, Denmark

Now
48 °F

Sunny.


Feels Like: 47 °F
Forecast: 40 / 57 °F
Wind: 3 mph from West

Location: Billund Lufthavn


UV Index: 0 (Low)

Visibility: 10 mi


Pressure: 30.45 "Hg

Humidity: 32%

Dew point: 19 °F

Location of VejleLocation

Historic Weather in Vejle

°F

Vejle temperature yesterday

Maximum temperature yesterday: 54 °F (at 2:20 PM)
Minimum temperature yesterday: 34 °F (at 5:50 AM)
Average temperature yesterday: 44 °F

Past Weeks' High & Low Weather Summary

 TemperatureHumidityPressure
High55 °F (Apr 11, 4:20 PM)100% (Apr 5, 5:20 AM)30.45 "Hg (Apr 5, 5:20 AM)
Low27 °F (Apr 16, 4:50 AM)30% (Apr 15, 4:20 PM)29.53 "Hg (Apr 8, 6:50 AM)
Average45 °F81%29.92 "Hg
* Reported Apr 1 9:20 AM — Apr 16 9:50 AM, Vejle, Weather by CustomWeather, © 2014

Note: Actual official high and low records may vary slightly from our data, if they occured in-between our weather recording intervals... More about our weather records

Advertising

Historic Weather Conditions — Data for Previous 24 hours

 ConditionsComfort  
Time TempWeatherWind HumidityBarometerVisibility
9:50 AM
Apr 16
46 °FSunny.3 mph43%30.45 "Hg10 mi
9:20 AM45 °FSunny.2 mph53%30.45 "Hg10 mi
8:50 AM39 °FSunny.1 mph81%30.45 "Hg10 mi
8:20 AM36 °FSunny.No wind93%30.45 "Hg10 mi
7:50 AM36 °FSunny.No wind93%30.45 "Hg10 mi
7:20 AM32 °FSunny.No wind93%30.45 "Hg10 mi
6:50 AM28 °FClear.1 mph93%30.42 "Hg10 mi
6:20 AM27 °FFog.No wind93%30.42 "HgN/A
5:50 AM27 °FFog.No wind93%30.42 "HgN/A
5:20 AM27 °FClear.No wind93%30.42 "Hg10 mi
4:50 AM27 °FClear.No wind93%30.42 "Hg10 mi
3:50 AM28 °FClear.No wind86%30.42 "Hg10 mi
3:20 AM30 °FClear.No wind80%30.42 "Hg10 mi
2:50 AM28 °FClear.No wind86%30.42 "Hg10 mi
12:50 AM32 °FClear.No wind75%30.39 "Hg10 mi
12:20 AM32 °FClear.No wind69%30.39 "Hg10 mi
11:50 PM
Apr 15
34 °FClear.1 mph65%30.39 "Hg10 mi
11:20 PM36 °FClear.2 mph60%30.36 "Hg10 mi
10:50 PM36 °FClear.2 mph60%30.36 "Hg10 mi
10:20 PM37 °FClear.3 mph52%30.36 "Hg10 mi
9:50 PM39 °FClear.2 mph48%30.36 "Hg10 mi
9:20 PM39 °FSunny.6 mph45%30.33 "Hg10 mi
8:50 PM43 °FSunny.5 mph39%30.33 "Hg10 mi
8:20 PM43 °FSunny.7 mph39%30.33 "Hg10 mi
7:50 PM46 °FSunny.9 mph34%30.30 "Hg10 mi
7:20 PM46 °FPassing clouds.12 mph34%30.30 "HgN/A
6:50 PM48 °FSunny.15 mph32%30.30 "Hg10 mi
5:50 PM50 °FSunny.16 mph32%30.27 "Hg10 mi
5:20 PM50 °FPassing clouds.15 mph35%30.27 "HgN/A
4:50 PM52 °FScattered clouds.14 mph30%30.24 "HgN/A
4:20 PM52 °FScattered clouds.15 mph30%30.24 "HgN/A
3:50 PM52 °FScattered clouds.15 mph32%30.24 "HgN/A
3:20 PM52 °FScattered clouds.16 mph35%30.24 "HgN/A
2:50 PM52 °FScattered clouds.16 mph38%30.21 "HgN/A
2:20 PM54 °FScattered clouds.15 mph38%30.21 "HgN/A
1:50 PM52 °FScattered clouds.13 mph41%30.21 "HgN/A
1:20 PM50 °FPassing clouds.13 mph40%30.21 "HgN/A
12:50 PM50 °FPassing clouds.13 mph43%30.18 "HgN/A
12:20 PM50 °FPassing clouds.15 mph43%30.18 "HgN/A
11:50 AM48 °FPassing clouds.14 mph43%30.18 "HgN/A
11:20 AM48 °FPassing clouds.13 mph46%30.18 "HgN/A
10:50 AM48 °FSunny.13 mph50%30.15 "Hg10 mi
10:20 AM46 °FPassing clouds.15 mph53%30.15 "HgN/A
Weather by CustomWeather, © 2014

See weather overview